LEGION 2

Last updated on Mon Sep 07 2026 00:02:46 GMT+0000 (Coordinated Universal Time)

1 59626U 24081B 26249.52709809 .00001931 00000+0 10064-3 0 9993 2 59626 97.4964 326.6134 0012648 58.6927 301.5543 15.17132182129871
UTC large
Height (km)
Speed (km/s)
/
Latitude / Longitude
Inclination (degrees)
Orbital Period (minutes)
Azimuth
Elevation
Range (km)
Doppler Factor

Next 0 passes for location: London (51.5072 / 0.1276)

No passes found over London.
LEGION 2